Location: Livorno
(43.5500°N, 10.3170°E)
Time: 11:15:26
(UTC+02:00)

ISS - Visible Passes

Search period start: 26 April 2018 00:00
Search period end: 06 May 2018 00:00
Orbit: 403 x 406 km, 51.6° (Epoch: 26 April)

Date Brightness Start Highest point End Pass type
(mag) Time Alt. Az. Time Alt. Az. Time Alt. Az.
01 May -1.2 05:19:31 10° SSE 05:21:24 15° SE 05:23:17 10° E visible
03 May -2.5 05:10:10 11° SSW 05:12:56 32° SE 05:15:54 10° ENE visible
04 May -1.8 04:19:55 16° SSE 04:20:45 18° SE 04:23:03 10° E visible
05 May -3.8 05:02:14 18° SW 05:04:33 75° SE 05:07:49 10° ENE visible
